Theta_e
335 334 337 336 336 337 337 337 335 335 336 337 338 338 339 339 339 339 339 338 336 336 335 334 334 333 333 333 333 334 335 336 337 337 337 336 335 335 336 337 337 336 335 335 335 335 334 335 335 334 334 334 334 334 334 334 334 333 333 333 333 332 330 330 330 330 329 328 329 329 329 330 330 330 328 326 325 326 327 328 326 327 328 328 328
333 334 335 335 336 336 336 336 335 335 335 336 337 338 338 338 339 339 338 337 336 336 335 334 334 334 333 332 333 334 334 335 335 336 336 336 336 336 336 337 337 336 334 335 335 335 335 335 335 334 334 334 334 334 334 334 334 333 333 332 332 331 330 329 329 329 328 329 330 330 330 330 330 329 329 329 328 328 328 328 327 328 328 328 328
335 335 334 335 335 335 336 335 334 335 335 336 336 337 337 337 338 338 337 336 335 335 334 334 334 334 334 332 332 334 334 334 334 335 336 336 337 336 336 337 337 336 334 335 335 335 334 334 335 334 334 335 335 334 334 334 334 333 333 333 331 331 330 329 329 329 329 329 329 330 330 330 329 328 328 328 328 328 329 328 327 328 328 327 327
335 335 335 335 336 335 336 335 334 334 334 335 336 336 336 336 336 336 336 335 333 333 334 333 333 333 334 333 333 333 334 333 334 335 336 336 337 337 336 337 337 336 334 334 334 334 334 333 334 334 334 335 335 335 335 334 334 332 332 333 331 330 329 329 330 329 329 329 328 329 329 329 328 328 328 328 328 328 328 328 327 328 327 326 326
335 335 335 335 336 336 335 335 335 334 335 335 335 336 335 335 336 335 334 333 332 332 332 332 333 333 333 334 333 333 334 335 335 336 336 336 337 336 337 337 336 335 335 334 333 333 333 333 333 334 334 335 336 335 334 335 335 333 332 332 332 331 330 329 330 330 329 328 328 328 328 328 328 328 328 327 327 327 328 327 327 328 327 327 327
334 334 335 335 336 335 336 335 333 332 331 332 332 333 333 333 333 334 333 332 332 331 332 332 332 333 333 333 334 334 335 336 336 337 336 336 337 336 336 337 336 335 335 335 334 333 333 332 332 334 335 335 335 335 335 335 335 333 332 332 332 331 330 329 329 330 329 328 327 327 326 326 327 328 328 327 327 327 327 327 327 328 328 328 327
334 334 334 335 335 335 334 332 329 328 328 328 329 329 329 329 330 331 332 332 332 331 331 332 332 332 333 334 334 335 336 336 336 336 336 337 336 336 336 336 336 336 335 335 334 333 332 331 332 333 334 335 335 335 335 335 335 334 333 332 332 331 330 329 329 329 329 327 326 325 325 325 325 327 327 327 328 328 327 327 328 328 327 327 327
334 334 333 332 331 330 329 327 326 327 328 329 329 329 329 329 329 330 331 332 332 331 331 332 332 332 334 334 334 335 335 335 335 335 336 336 336 336 335 335 335 335 335 335 335 334 333 332 332 332 334 335 335 335 336 335 335 334 333 331 331 331 330 329 329 329 328 327 327 326 327 327 326 326 326 326 326 327 328 328 328 328 327 326 327
333 331 330 329 328 327 326 326 327 327 327 327 328 329 329 329 330 330 331 332 332 332 331 332 332 332 333 334 334 335 335 335 335 335 335 336 335 335 335 334 335 334 335 335 334 334 333 333 332 332 333 334 335 335 336 335 335 335 333 332 331 331 330 329 329 329 328 328 327 326 328 327 326 327 326 324 324 326 328 327 327 327 327 327 327
329 328 327 327 326 326 326 326 327 327 326 326 327 328 329 329 330 331 331 332 332 332 331 331 333 333 333 334 334 335 335 335 335 335 335 335 335 335 335 333 333 334 335 334 333 332 333 333 333 333 334 334 334 334 335 335 335 335 334 333 333 332 331 329 329 329 329 329 328 327 328 327 326 326 325 324 324 325 327 327 326 326 326 327 327
325 325 324 325 325 324 325 325 326 327 326 326 327 327 328 328 329 330 331 331 331 331 330 331 333 333 333 334 334 334 335 335 335 335 334 334 334 334 334 332 332 333 334 334 334 333 332 333 333 333 334 333 332 333 333 334 334 335 334 333 332 331 331 330 329 329 329 329 329 328 328 327 327 326 326 325 324 324 325 326 326 326 326 326 326
322 322 321 321 322 322 323 324 325 326 327 327 328 328 329 329 329 329 330 330 331 331 331 332 333 334 334 334 334 334 335 335 335 335 334 334 334 333 333 332 332 333 333 333 334 334 333 333 333 334 334 333 333 332 333 333 334 334 334 333 332 331 331 331 330 329 329 330 329 328 328 328 328 328 327 326 325 324 324 325 325 325 325 326 326
319 319 319 319 319 320 320 322 323 324 325 326 327 328 329 329 330 330 330 330 330 331 331 332 333 334 334 334 334 334 334 335 335 335 335 334 334 332 332 332 332 332 332 332 333 333 333 333 334 334 333 334 333 332 333 334 334 335 334 334 333 332 332 331 330 330 330 330 330 329 328 328 329 328 328 326 325 324 324 325 325 325 325 324 325
317 316 316 316 316 317 317 318 319 320 321 322 324 327 327 328 329 329 330 329 329 330 330 331 332 333 333 333 333 333 333 332 331 333 334 334 333 332 331 330 331 331 331 332 333 333 333 333 333 333 332 333 333 333 333 333 334 335 333 332 332 333 332 332 331 331 331 330 330 330 330 329 329 329 328 327 326 324 324 324 325 324 324 323 323
315 314 313 314 314 314 315 316 316 316 317 318 321 323 325 326 327 327 328 328 327 328 329 330 330 331 332 333 333 333 332 330 330 332 334 334 333 332 331 330 330 330 330 331 332 333 333 333 333 333 333 333 334 333 332 332 332 333 333 332 332 333 333 332 331 331 331 331 330 330 330 330 329 329 328 327 326 325 324 324 324 323 323 320 320
312 311 311 312 312 312 312 313 314 314 315 316 317 319 321 323 323 324 325 326 326 327 328 329 329 329 330 331 332 332 332 331 331 333 334 334 333 332 331 330 330 330 330 331 331 331 332 332 333 333 333 334 334 332 330 329 331 333 333 332 332 333 333 332 332 332 331 331 331 331 331 330 330 329 328 327 327 326 325 324 323 323 323 321 319
310 310 310 310 310 310 310 311 311 312 313 313 314 315 317 318 319 321 323 324 325 326 326 327 327 328 328 329 330 330 331 332 332 332 333 333 332 332 331 331 330 331 331 331 331 331 331 332 333 333 332 333 333 332 329 329 331 332 332 333 332 333 333 332 332 332 332 331 331 331 331 331 330 330 329 327 327 326 325 325 324 323 324 322 321
308 308 308 308 309 308 309 309 309 310 311 311 312 313 314 315 316 317 320 322 323 324 325 326 327 327 327 327 328 329 330 331 331 331 332 332 331 332 332 331 331 331 331 331 331 331 331 331 332 332 332 333 333 332 331 331 331 332 331 331 332 332 332 332 332 332 332 331 331 331 331 331 331 330 329 328 327 327 326 325 324 323 323 323 322
307 306 306 307 307 307 307 308 308 308 309 309 310 311 312 313 315 316 318 320 322 323 324 325 326 327 327 326 326 328 330 331 331 332 331 330 330 331 332 332 332 332 331 331 330 330 330 331 332 332 332 332 332 331 332 331 332 332 331 329 331 332 332 331 332 332 332 331 330 330 330 330 330 330 329 329 328 328 327 326 325 324 324 323 321
306 305 305 306 306 306 306 307 307 307 308 308 309 309 310 311 313 315 317 319 320 321 322 324 325 326 327 327 326 327 329 330 331 331 331 330 329 330 331 331 331 331 331 332 331 330 330 330 331 331 331 331 331 330 331 331 332 332 330 330 332 333 331 331 332 332 332 331 331 330 330 330 330 329 329 329 329 329 328 327 326 325 324 323 321
305 304 305 305 305 305 305 306 305 306 306 307 307 308 308 309 311 312 314 316 317 319 320 322 324 325 326 327 327 327 328 329 329 329 330 331 331 330 330 330 331 331 331 332 332 330 330 330 330 330 331 331 330 330 331 332 332 331 329 330 332 332 331 332 332 332 332 331 331 330 330 330 330 329 329 329 329 329 328 327 326 325 324 323 321
304 304 304 304 304 304 304 304 304 305 305 305 306 307 307 308 309 310 312 314 315 317 318 320 322 323 325 326 328 328 328 329 329 329 329 330 331 330 330 330 331 331 331 332 332 331 330 329 329 330 330 330 330 330 331 331 330 329 329 330 331 331 331 332 332 332 332 331 331 330 330 330 329 329 329 330 330 329 328 328 327 326 325 324 321
303 303 304 304 303 303 303 303 303 304 304 304 305 306 306 307 307 308 310 312 314 316 318 319 321 322 324 325 327 328 328 329 329 329 329 329 330 330 330 331 331 331 331 332 331 330 330 329 330 330 330 329 330 329 330 330 330 329 329 330 332 331 331 332 332 332 331 331 331 330 330 330 329 329 330 330 330 329 329 329 328 327 327 325 323
302 303 303 303 303 302 302 303 303 303 303 303 304 304 305 306 306 307 308 309 312 315 318 320 321 322 323 324 325 326 327 329 329 329 329 329 330 330 330 330 331 331 330 330 330 330 330 329 330 330 330 330 330 329 329 330 331 330 329 329 331 332 332 332 332 331 331 330 330 330 330 330 330 330 330 330 330 329 329 329 328 328 327 325 324
302 302 302 302 302 302 302 302 302 302 302 302 303 303 304 305 305 306 306 307 309 312 315 319 321 322 323 324 324 325 326 327 327 328 328 329 329 329 328 329 330 331 330 329 329 329 330 329 330 330 330 330 330 329 330 330 330 330 329 329 331 332 332 332 331 331 331 330 330 330 331 331 331 330 330 330 330 329 328 328 328 328 327 325 324
301 301 301 301 301 301 301 301 301 301 302 302 302 303 303 304 304 305 306 307 308 309 313 316 319 321 322 323 324 325 325 326 326 326 327 327 328 328 328 329 330 331 330 329 328 329 329 329 330 330 330 330 330 330 331 331 330 330 329 330 331 332 331 331 331 331 330 330 330 330 331 331 331 331 331 330 329 329 328 328 328 328 327 326 324
301 300 301 300 300 301 301 300 301 301 301 301 302 302 302 303 303 304 305 306 307 308 310 312 315 318 320 322 323 324 325 325 325 325 326 326 326 327 328 329 329 330 330 329 328 328 329 330 330 330 330 330 330 330 330 330 330 330 330 330 331 331 331 331 331 331 331 330 330 330 331 331 331 330 330 330 329 329 329 328 328 328 327 325 324
300 300 300 299 299 300 300 300 300 300 300 300 301 301 302 302 303 303 305 305 306 307 309 310 312 315 318 320 322 324 325 325 325 325 325 325 325 325 327 328 328 329 330 329 328 328 329 329 330 330 330 330 329 329 329 330 330 331 331 331 331 331 330 330 330 331 331 331 330 330 330 330 330 330 330 329 329 329 329 328 327 327 326 325 325
299 299 299 299 299 299 299 299 299 299 299 300 300 301 301 302 302 303 304 305 305 306 308 308 309 311 314 317 319 322 323 324 325 325 325 325 325 325 326 326 327 328 329 328 327 328 328 329 329 329 328 328 328 328 329 330 330 331 331 330 330 330 329 329 330 330 330 330 330 330 329 329 328 329 329 329 329 329 328 328 328 327 326 326 325
299 299 298 298 299 299 299 299 299 299 299 299 299 300 301 301 302 302 303 304 305 305 306 307 308 308 311 314 317 319 322 323 324 325 325 325 324 325 325 326 326 327 327 326 326 327 328 329 328 327 327 327 328 328 329 329 329 329 330 329 328 328 328 328 329 329 328 328 328 328 328 327 327 327 328 328 329 328 327 327 328 328 327 327 325
298 298 298 298 298 298 298 298 298 298 298 299 299 299 300 301 301 302 303 303 304 305 305 306 307 307 308 311 315 318 320 322 323 324 324 324 324 325 325 326 326 326 325 325 325 326 327 327 326 326 326 327 327 328 328 327 327 328 328 327 326 325 326 327 327 327 326 326 326 326 326 326 327 327 327 327 328 328 327 327 327 327 326 326 325
298 298 298 298 298 298 298 298 298 298 298 298 298 299 300 300 301 301 302 303 304 304 305 305 306 306 307 309 312 316 319 322 323 324 324 324 324 325 325 325 325 324 323 323 324 325 325 325 325 325 326 327 327 327 327 326 326 326 326 325 324 324 325 325 325 325 324 324 324 325 325 326 326 327 327 326 327 327 326 326 326 326 324 324 323
298 298 297 298 298 298 298 298 298 298 298 298 298 298 299 300 300 301 301 302 303 303 304 305 305 306 306 307 310 314 317 320 322 323 323 324 323 323 323 323 323 322 322 321 322 323 324 323 324 325 325 326 326 326 325 325 324 324 324 323 323 323 323 323 323 323 324 324 324 324 325 326 326 326 326 326 326 326 326 325 325 324 323 323 322
297 297 298 297 297 297 297 297 297 297 297 298 298 299 299 299 300 300 301 301 302 302 303 304 304 305 306 307 309 311 313 316 319 321 321 321 320 319 318 317 318 318 319 319 320 320 322 322 322 324 325 325 324 324 323 323 322 322 322 322 322 322 322 322 323 324 324 324 324 324 325 325 324 324 324 325 325 325 324 322 321 319 318 317 318
297 297 297 297 297 297 297 297 297 297 298 298 298 298 299 299 299 299 300 300 301 301 302 303 304 305 306 306 308 309 310 311 313 315 315 314 314 313 313 312 313 314 316 316 316 316 317 318 320 323 324 323 322 322 322 321 321 321 321 321 322 322 322 323 324 324 324 324 323 324 323 322 321 322 323 323 323 322 319 317 316 315 314 313 314
297 297 297 297 297 297 297 297 297 298 298 298 298 299 299 299 299 299 299 299 300 300 301 302 303 304 305 306 306 308 308 308 308 309 309 308 307 307 308 309 310 311 312 312 312 311 311 313 316 319 320 319 320 320 320 320 320 321 321 321 322 322 323 323 323 323 323 323 322 323 321 319 319 320 320 319 319 317 315 314 313 312 312 312 312
298 298 297 297 297 297 297 298 298 298 298 298 299 299 299 299 299 299 299 299 299 299 300 301 302 303 304 305 306 306 307 306 306 306 305 304 303 302 303 305 307 308 308 308 308 308 308 309 312 315 316 317 319 319 319 319 319 320 320 320 321 321 321 321 321 320 321 321 321 321 320 319 317 317 315 314 315 315 313 313 313 312 312 311 309
298 298 298 297 297 298 298 298 298 298 298 298 299 299 300 299 299 299 299 299 299 299 299 300 301 303 304 305 305 305 305 304 304 303 302 302 302 301 301 304 306 305 305 305 306 307 308 309 311 313 315 316 318 318 318 318 318 319 319 319 319 319 318 318 317 317 317 317 317 317 319 318 316 314 313 313 314 315 314 314 314 313 312 309 306
299 299 298 298 297 298 298 298 298 298 298 299 299 299 300 299 299 299 299 299 299 299 299 299 301 303 304 304 304 304 304 303 302 301 301 301 302 301 301 303 304 304 304 305 306 307 308 309 310 311 312 314 315 316 317 318 318 318 318 318 318 317 316 314 314 313 313 313 314 315 316 316 315 314 314 314 314 314 315 315 315 314 311 307 304
299 299 299 298 298 298 298 298 298 298 298 299 299 299 299 299 299 300 299 299 299 298 298 299 300 303 304 304 304 303 303 303 302 301 300 300 301 302 302 302 303 303 304 306 307 307 307 307 308 310 310 311 312 313 314 315 316 316 316 317 317 316 314 311 310 310 309 309 310 311 312 312 313 314 315 315 314 314 315 314 314 313 310 304 303
299 299 299 298 298 298 298 298 298 298 298 299 299 299 299 299 299 299 299 299 299 298 298 299 300 302 304 304 304 303 303 303 302 302 301 300 300 301 302 302 302 303 304 305 305 305 305 304 305 307 308 308 309 310 310 312 313 314 314 315 315 314 313 310 308 306 306 306 306 306 306 306 308 309 310 310 310 310 310 310 310 310 307 303 303
298 298 298 298 298 298 298 298 299 299 299 299 299 299 299 299 299 299 299 300 299 298 298 299 300 301 302 303 304 304 303 303 302 302 302 301 301 300 300 301 301 302 303 302 301 302 302 301 302 304 305 305 306 307 308 309 310 311 312 312 312 311 309 309 307 305 304 304 304 304 304 304 305 306 305 305 305 305 306 306 306 306 305 304 304
298 298 298 298 298 299 299 298 299 299 299 299 299 299 299 299 299 299 299 300 300 299 298 298 299 299 300 301 303 304 304 303 302 302 301 301 301 301 301 301 300 300 301 300 300 300 300 299 299 300 301 302 303 305 306 307 308 309 309 310 309 308 307 307 306 304 303 303 303 303 303 303 304 304 304 304 304 304 305 305 305 305 305 305 304
298 299 299 299 299 299 299 299 298 299 299 299 299 299 299 299 299 299 300 300 300 300 299 298 298 299 299 299 301 303 304 303 302 302 301 301 301 301 301 300 300 300 300 300 300 300 300 299 298 298 298 299 300 301 303 304 305 306 307 307 307 306 306 306 305 303 302 302 302 302 302 303 303 303 303 303 304 304 305 305 305 305 305 304 304
299 299 299 299 299 299 299 299 298 299 299 298 299 299 299 299 299 299 299 300 300 300 300 298 298 298 298 299 299 301 303 303 303 302 302 302 301 301 301 300 300 300 299 299 299 299 300 299 299 298 298 299 299 299 300 301 301 302 303 304 305 305 305 305 304 302 301 302 302 302 302 302 302 302 302 303 303 304 304 304 304 304 304 303 303
299 299 299 300 300 299 299 299 298 299 299 298 299 299 299 299 298 299 299 300 300 300 300 299 298 298 298 298 298 299 301 302 303 302 302 302 301 301 301 301 300 300 299 299 298 298 298 299 298 298 298 299 299 300 300 300 300 301 301 302 303 303 303 303 302 301 301 301 301 301 302 302 302 302 302 302 302 302 303 303 303 302 302 302 301
299 299 299 300 300 299 299 299 298 298 299 299 299 299 299 299 298 299 299 299 299 300 300 299 299 298 298 297 297 298 298 300 301 302 302 302 302 302 302 301 301 300 300 299 299 298 298 298 298 298 298 299 299 300 300 300 300 300 301 301 302 302 302 302 301 301 301 301 301 301 301 301 301 301 301 301 301 301 301 301 301 301 300 300 299
300 299 300 300 300 300 299 299 298 298 299 299 299 298 299 299 299 299 299 299 299 299 300 300 300 299 298 298 297 297 297 298 298 299 299 300 300 300 300 300 300 300 299 298 297 297 297 297 297 297 297 298 299 299 299 300 300 300 300 301 301 301 301 301 301 301 300 300 300 300 300 300 300 300 299 299 299 299 299 299 298 298 298 297 297
299 299 300 300 299 300 300 299 298 298 298 298 298 298 298 298 299 299 299 298 299 299 299 299 300 300 299 298 297 297 297 297 297 297 297 297 297 298 298 298 298 298 298 297 296 296 295 295 295 296 296 297 298 299 299 299 299 300 300 300 301 301 301 300 300 300 300 300 299 299 299 299 299 298 298 297 297 297 296 296 296 296 295 295 295
299 299 299 299 299 299 299 299 298 298 298 299 298 298 298 298 298 298 298 298 298 298 299 299 299 300 300 299 298 297 297 297 297 296 296 296 296 297 297 297 297 297 297 297 296 296 295 295 295 295 296 296 298 299 299 299 299 300 300 300 300 300 300 300 300 300 299 299 298 298 297 297 297 297 296 295 295 295 294 294 294 294 294 294 294
298 298 298 298 298 299 299 299 298 298 298 299 298 298 298 298 298 298 298 298 297 298 299 299 298 299 300 300 299 298 297 297 297 296 296 296 296 296 296 296 296 296 296 296 296 295 295 295 295 295 296 296 297 298 299 299 300 300 300 300 300 300 300 299 299 299 299 298 297 296 295 295 295 295 294 294 294 293 293 293 293 293 293 293 293
Wind_Speed
3 9 14 16 18 18 19 19 18 18 20 24 28 31 32 32 32 33 33 32 31 30 28 27 26 25 24 24 22 21 23 25 25 26 24 23 22 22 23 24 24 24 24 24 24 23 21 19 19 19 20 20 19 20 20 19 18 19 18 17 17 15 13 13 15 16 13 10 8 7 7 7 8 9 10 11 11 10 10 11 13 12 11 10 9
4 6 9 14 16 17 18 18 19 19 21 26 30 31 30 31 33 33 32 31 32 32 30 28 28 25 23 23 22 21 23 27 27 26 25 23 23 22 24 24 24 25 26 26 26 25 22 20 19 20 21 21 20 20 20 20 20 21 20 18 16 15 14 15 17 16 11 11 10 8 6 5 6 6 7 8 9 10 10 9 10 12 11 10 10
4 4 6 12 14 16 17 18 20 21 22 26 29 29 30 32 33 33 31 30 30 31 30 29 27 25 22 20 19 18 21 26 27 26 25 23 22 22 24 24 25 26 27 27 28 27 24 21 20 21 22 22 22 22 21 21 21 21 21 19 16 14 14 16 19 16 13 14 11 6 4 3 4 3 4 6 7 8 8 6 6 9 9 10 10
3 2 4 8 11 13 15 15 17 20 23 27 27 27 29 31 31 31 30 27 26 27 27 27 26 23 23 20 18 18 19 21 23 24 25 24 23 24 24 24 24 26 27 27 28 29 26 23 21 22 23 23 23 23 22 21 21 21 21 21 18 16 15 17 20 17 16 17 9 3 2 2 1 3 4 3 3 4 5 6 6 7 8 9 9
3 3 4 6 7 8 9 11 14 16 19 22 24 26 26 26 24 24 24 21 19 20 21 22 22 22 21 18 17 18 17 19 22 24 25 26 26 25 24 23 23 25 28 28 28 30 28 25 23 23 23 24 24 22 21 21 21 22 22 22 21 19 17 19 20 17 17 18 11 5 4 1 2 4 5 3 2 4 4 4 6 6 7 8 9
2 3 4 5 4 4 3 3 3 4 9 10 8 9 10 12 13 14 15 14 13 14 15 16 17 18 18 17 17 17 15 17 21 23 24 25 25 24 24 23 24 26 28 28 28 29 29 27 25 25 25 25 25 23 21 21 22 23 23 22 22 22 20 20 21 19 19 18 12 8 5 2 5 8 5 1 3 5 4 5 5 6 8 8 8
1 1 0 1 3 3 5 10 12 13 16 17 18 21 22 20 15 13 14 13 13 13 13 14 15 14 14 16 15 14 13 12 13 16 20 23 23 23 24 24 25 27 27 28 27 28 28 27 26 26 26 26 26 24 22 21 22 23 23 23 22 23 22 22 22 21 21 18 13 10 5 4 10 12 6 4 4 4 5 7 7 6 8 9 8
5 6 6 7 11 13 14 17 17 15 13 10 8 11 14 16 14 13 15 15 14 13 12 14 14 12 12 12 12 11 10 9 8 10 15 19 22 23 24 25 26 27 27 26 27 27 27 26 26 26 27 28 27 25 24 22 23 23 23 23 23 24 24 23 23 23 24 21 16 12 5 5 12 12 10 8 5 3 5 6 7 7 8 8 7
8 8 9 10 12 15 15 15 15 14 13 11 7 5 5 4 6 9 13 16 18 17 13 12 12 13 13 12 11 9 8 7 6 7 11 16 21 23 24 26 26 27 26 25 27 27 26 25 25 26 26 27 27 27 26 24 24 24 24 24 25 26 25 23 24 26 26 24 21 15 7 9 12 9 10 11 6 5 5 5 7 7 7 8 9
9 9 10 11 12 15 15 15 16 15 13 12 8 3 1 2 3 7 9 13 19 19 16 13 12 12 14 13 12 10 8 7 6 7 10 15 19 22 24 25 24 24 24 24 25 25 24 24 25 26 26 27 27 28 27 26 25 25 25 25 25 26 26 25 24 24 26 25 23 19 13 14 12 7 10 11 6 4 4 6 10 9 7 8 9
9 10 12 15 18 21 22 21 21 21 18 16 14 10 5 2 3 6 8 10 14 15 14 15 14 13 13 12 11 11 9 10 9 8 10 13 17 20 21 21 22 23 25 24 24 23 23 24 25 26 27 26 26 27 28 28 26 25 25 26 25 26 26 25 24 22 23 23 23 22 19 17 14 10 14 16 10 6 5 7 11 11 8 8 9
10 10 11 15 18 21 24 23 23 24 24 21 19 16 12 8 5 5 7 9 10 10 10 12 13 14 15 13 12 12 12 13 12 12 12 13 16 18 19 19 21 23 24 25 25 24 24 25 25 27 28 27 25 26 27 28 27 26 27 26 25 26 26 25 24 22 21 22 22 22 21 19 16 12 14 18 16 13 11 8 10 11 8 7 10
10 9 9 11 13 16 20 21 22 24 25 24 22 20 18 14 9 5 6 8 10 11 10 9 10 13 15 15 13 12 13 14 13 13 14 14 15 16 16 17 21 22 23 26 26 25 25 25 26 27 26 25 24 24 26 27 27 27 28 28 25 26 26 25 24 23 21 20 20 22 21 19 16 13 12 15 17 15 13 10 9 11 8 6 8
10 9 10 10 11 15 18 20 21 22 24 24 23 22 19 17 14 10 7 6 7 9 11 11 11 12 14 15 15 14 15 16 16 16 16 16 17 17 17 17 21 24 24 25 27 27 26 26 26 25 22 21 22 22 24 27 27 27 28 28 25 24 24 24 24 23 21 19 19 21 21 20 17 14 13 14 16 16 15 14 12 8 6 7 7
9 10 10 11 14 17 18 20 21 22 24 25 24 23 20 18 17 16 14 12 9 7 8 9 11 13 14 14 15 16 17 17 17 18 19 21 21 20 20 18 20 24 24 23 25 27 27 25 25 24 22 22 23 23 25 27 27 26 26 25 24 22 22 24 23 22 21 20 19 19 19 19 18 15 15 14 16 18 17 18 17 9 4 4 4
11 10 10 13 16 18 19 19 19 20 22 24 24 23 21 20 20 18 16 14 11 9 6 7 9 11 12 13 14 16 17 18 20 22 23 25 24 20 18 16 16 20 24 24 24 24 22 23 24 24 23 24 25 24 24 26 27 26 25 24 24 22 22 23 22 21 21 19 19 18 18 19 18 16 15 14 15 17 17 18 20 16 9 4 2
10 10 10 13 15 17 19 19 19 20 22 23 23 21 21 21 21 20 17 14 11 10 9 8 10 13 13 13 15 17 17 20 23 24 24 25 24 18 15 15 14 17 23 25 25 23 21 22 24 22 22 24 25 24 24 24 24 24 24 24 24 23 22 22 21 20 20 18 18 18 18 19 18 17 16 14 14 16 17 18 19 20 16 9 4
9 10 10 13 15 17 18 18 18 19 20 21 22 21 22 23 23 22 20 18 16 15 13 10 10 15 16 15 16 16 16 20 22 22 23 24 22 19 16 15 14 16 21 24 25 25 22 23 25 23 23 23 23 24 24 23 22 24 25 25 25 23 21 21 21 20 18 17 17 17 17 18 19 18 17 16 15 15 17 18 18 20 20 15 10
9 10 10 12 15 17 18 17 18 19 19 21 22 23 24 25 25 24 22 21 19 19 18 15 12 13 15 16 17 17 16 20 22 21 22 23 20 19 18 15 15 17 21 23 25 24 22 24 26 25 24 22 23 25 24 22 24 25 25 26 25 23 21 21 20 19 17 16 15 16 17 17 18 17 16 16 16 15 16 17 18 20 21 19 16
9 9 9 11 15 17 17 17 18 18 18 20 23 25 27 28 28 27 24 22 21 21 20 18 15 14 14 15 16 17 18 22 24 21 21 21 20 19 19 19 19 20 21 22 23 23 23 23 24 24 23 22 23 25 24 24 25 24 24 27 26 22 21 20 19 18 17 15 15 15 16 16 16 16 15 15 16 15 15 17 17 19 21 19 17
8 8 9 12 15 17 18 18 18 18 17 20 22 23 26 28 29 29 27 25 24 23 21 20 16 14 15 15 14 15 17 22 25 23 21 20 19 20 21 22 22 21 20 20 21 23 22 22 22 22 21 21 23 25 24 25 25 22 23 27 26 23 21 20 18 18 17 15 15 15 16 16 16 16 15 15 15 15 15 16 17 18 21 20 17
8 8 9 12 15 18 19 21 21 21 21 21 21 21 22 24 26 28 29 28 27 25 23 21 17 13 13 14 14 17 20 21 22 23 22 21 21 22 23 23 22 22 20 20 21 22 21 20 21 21 21 21 23 25 26 27 24 20 22 26 24 20 19 18 18 18 17 16 15 15 16 16 16 15 15 15 14 14 14 16 17 18 20 22 20
9 9 10 12 14 15 17 20 22 23 23 22 21 20 21 24 26 27 28 29 28 26 24 23 21 17 14 13 13 15 19 21 22 22 22 22 22 23 23 23 23 23 22 21 22 22 21 21 21 22 24 23 23 24 26 25 23 20 22 24 20 17 17 17 18 18 17 16 16 15 15 15 15 16 15 15 14 14 15 16 17 18 20 22 22
9 9 11 12 13 14 15 17 19 20 21 21 20 20 21 24 25 25 27 28 27 26 25 24 23 21 18 16 15 13 15 19 21 21 21 22 23 24 24 24 24 25 24 22 22 22 21 22 23 24 25 25 23 22 23 23 21 20 22 23 19 17 17 17 17 17 17 16 16 15 15 15 15 16 16 16 15 15 15 16 16 18 20 21 22
9 9 11 12 13 14 14 16 17 18 19 19 20 21 21 21 22 22 24 26 25 26 25 23 23 22 20 19 18 17 16 16 17 17 19 21 23 24 23 24 25 26 25 23 23 23 22 23 25 26 26 25 22 22 22 20 19 20 23 22 18 17 17 17 17 16 16 16 15 15 15 14 15 16 16 16 16 16 15 16 16 17 19 21 23
9 10 10 11 12 14 15 16 16 17 17 19 20 21 21 21 21 21 23 24 24 25 24 23 23 22 20 20 20 19 19 18 17 16 17 19 21 23 24 26 27 27 26 25 26 26 24 25 26 26 26 24 22 22 22 19 18 22 22 19 17 17 17 17 16 15 15 15 15 14 14 14 14 15 16 16 16 17 16 16 17 17 18 20 22
8 9 9 11 12 13 15 15 16 17 17 19 20 21 21 22 23 24 25 24 23 24 23 23 23 22 20 20 20 20 20 19 18 17 17 18 20 23 26 28 28 27 27 27 28 27 27 27 27 26 25 23 22 22 20 18 21 23 21 18 18 17 16 16 16 14 13 13 14 13 13 13 14 14 16 17 17 17 17 17 17 17 17 19 22
9 9 10 11 10 12 15 15 15 17 19 21 22 23 23 24 24 26 27 26 25 23 22 21 21 22 22 21 20 20 20 19 18 18 18 19 20 23 26 28 28 28 28 28 28 28 28 28 27 26 24 23 22 21 19 20 23 22 19 18 18 17 16 16 15 13 12 12 13 13 13 12 12 13 15 17 17 17 17 16 16 16 17 19 22
10 10 10 10 10 12 15 16 17 19 22 24 25 26 27 27 27 27 28 28 26 24 22 21 21 22 24 23 21 20 20 20 20 19 19 20 21 23 25 27 29 30 30 28 27 28 28 27 26 25 25 23 21 19 19 22 22 19 19 19 17 16 15 15 15 14 13 13 13 13 12 11 11 12 13 14 14 14 14 14 15 16 17 19 21
10 10 10 10 11 13 15 17 20 22 24 24 25 27 28 28 29 29 30 30 28 25 24 24 24 24 25 25 23 21 19 19 20 20 19 20 22 24 25 27 29 31 30 29 29 30 29 28 27 26 25 23 21 21 21 21 19 18 18 18 16 15 15 14 14 14 13 13 12 12 11 10 9 9 10 10 10 9 9 10 12 14 17 18 20
10 10 10 10 12 14 17 19 21 22 23 24 25 26 27 28 30 30 31 31 29 27 27 26 26 27 28 27 25 22 18 17 19 20 20 20 22 24 25 26 29 30 29 29 31 32 29 28 28 26 25 23 22 21 21 19 18 18 18 17 16 15 15 15 15 15 13 12 12 11 9 8 7 7 7 7 8 8 8 9 10 12 15 15 17
10 10 11 11 12 15 17 19 21 23 24 24 25 26 27 28 29 30 30 31 30 29 29 29 29 29 30 29 27 22 17 15 17 19 20 20 21 23 24 25 27 28 27 27 29 30 29 28 27 25 24 23 22 20 19 18 17 18 18 16 15 15 16 16 16 14 14 13 12 10 9 7 7 7 8 8 9 9 9 10 11 13 13 12 14
9 9 10 11 12 15 17 20 22 24 25 25 25 26 26 26 27 28 30 31 30 30 31 32 32 32 31 31 28 23 17 11 11 15 16 16 17 18 20 23 26 26 25 26 27 28 28 26 25 25 24 23 21 20 19 18 18 18 18 17 16 16 17 16 15 15 15 14 13 10 9 8 7 7 8 9 10 11 11 11 11 11 11 10 11
8 8 9 11 14 16 18 21 22 23 24 25 26 26 26 25 26 27 30 31 30 31 31 31 31 32 33 32 29 24 18 11 5 7 9 9 10 12 14 17 21 23 23 23 24 24 25 25 25 26 25 23 21 21 20 19 18 17 17 17 17 18 17 16 15 16 15 14 12 10 9 8 8 8 9 11 12 13 13 12 10 9 8 7 8
7 7 10 13 15 17 19 21 23 24 25 27 28 28 27 27 28 29 30 30 30 31 32 31 31 33 33 32 29 25 20 15 9 4 3 4 6 8 11 14 17 19 21 20 20 21 22 25 26 26 25 24 23 23 22 20 19 18 17 17 18 18 18 17 16 15 14 13 12 11 10 10 10 10 10 12 14 15 15 16 16 16 16 15 14
7 9 11 14 15 16 18 20 22 24 26 27 27 28 28 29 30 31 31 31 31 32 33 32 32 33 33 31 29 25 21 19 15 13 12 11 10 10 12 16 18 19 19 18 18 18 18 21 25 25 25 26 24 23 22 21 19 19 18 17 18 19 18 18 16 15 14 13 12 11 12 12 12 13 14 15 16 18 20 21 22 21 19 18 18
10 11 12 14 16 17 19 20 21 23 24 25 26 27 29 31 32 32 32 32 32 33 33 32 32 32 32 30 28 24 22 21 19 17 17 15 14 14 14 18 20 20 19 18 17 17 16 18 22 24 24 25 24 21 20 20 19 19 18 18 19 18 18 18 17 16 15 14 13 12 13 14 15 16 17 17 18 19 20 21 20 18 16 16 18
11 13 14 17 18 18 19 20 22 23 23 23 25 26 29 31 32 32 32 33 33 32 32 31 31 31 30 29 27 25 23 23 22 20 19 17 17 17 17 21 24 24 22 21 19 18 17 17 19 21 22 24 24 20 18 18 17 16 16 18 19 19 19 19 19 18 17 16 15 13 13 16 18 18 18 18 16 15 14 14 14 15 16 17 18
13 14 15 16 17 18 19 21 23 23 23 23 23 26 28 29 30 31 32 32 32 31 30 30 30 29 29 28 27 25 24 24 24 22 21 19 19 18 19 23 26 26 25 24 22 21 20 18 17 18 19 21 22 20 18 17 17 16 15 17 19 20 21 22 21 21 20 19 18 17 16 17 19 19 19 18 15 12 12 12 13 15 17 19 18
15 16 16 16 17 18 20 21 22 23 24 23 23 24 26 27 29 30 31 30 29 28 28 28 29 28 27 26 26 25 24 23 22 21 21 21 20 19 21 23 24 25 26 26 23 22 21 19 17 17 17 18 18 18 17 17 17 17 16 17 19 20 23 24 24 23 23 22 21 20 19 18 18 18 17 16 14 13 13 14 14 14 17 19 19
15 16 17 17 18 19 19 20 21 23 25 25 24 24 25 26 28 29 28 27 27 27 27 28 30 29 28 26 25 24 23 22 20 19 19 22 23 22 21 22 22 23 25 25 24 23 22 21 19 17 17 16 16 16 16 16 17 18 19 19 20 21 24 26 25 24 24 23 21 20 19 17 17 17 16 15 15 14 13 13 13 13 16 18 19
15 16 17 18 18 19 20 20 21 22 24 25 25 25 25 25 26 26 26 26 27 28 28 29 31 31 30 27 25 24 22 21 20 19 19 20 22 23 23 23 23 23 25 25 24 24 24 24 22 20 18 16 15 15 15 15 15 17 18 19 21 24 25 26 26 25 24 23 22 20 19 17 16 16 16 15 15 14 13 14 14 15 17 19 20
14 16 16 17 18 19 19 19 20 20 21 23 24 25 25 25 25 24 23 24 26 27 28 29 31 32 31 29 26 24 22 21 21 21 21 21 21 22 24 25 25 26 26 26 25 25 25 25 24 23 22 20 18 16 15 15 15 15 17 19 21 23 23 24 26 26 25 24 23 21 20 18 16 17 17 17 17 16 16 18 19 20 20 20 20
13 14 15 16 17 19 19 19 19 20 20 21 22 23 24 24 24 24 22 22 24 25 26 27 28 30 31 30 28 25 23 22 22 22 22 23 23 25 25 25 25 27 28 27 25 24 25 24 23 23 23 22 21 20 18 17 16 15 17 18 19 20 20 21 24 26 26 26 25 24 22 20 19 19 19 19 19 20 21 22 22 22 21 20 19
12 13 15 17 17 18 18 19 19 20 21 21 21 21 21 22 22 23 22 21 22 24 25 25 25 27 28 29 30 28 25 23 22 22 23 24 25 27 27 26 26 27 27 26 24 23 24 24 23 22 23 22 22 21 20 18 16 15 16 16 17 18 19 20 23 26 26 26 26 24 22 21 21 21 21 21 22 22 22 22 21 20 19 17 16
12 13 15 16 17 17 18 19 19 20 20 20 20 19 18 18 19 20 22 21 21 23 25 25 24 24 25 27 29 30 28 25 23 22 23 24 25 27 28 27 27 27 26 24 23 23 23 23 22 21 20 20 20 20 20 19 17 16 16 16 17 19 20 21 24 26 26 25 25 23 22 22 22 21 21 22 24 23 21 20 19 18 17 15 14
11 12 14 15 16 17 18 18 20 20 19 18 18 18 17 17 17 18 20 21 21 21 22 23 24 24 24 25 26 28 29 29 27 25 24 23 23 24 25 24 23 22 22 22 22 22 22 22 21 20 19 19 19 19 19 19 18 18 19 19 20 22 23 24 26 26 24 24 23 21 21 21 21 21 21 22 22 20 19 18 17 16 15 15 14
10 12 13 14 16 17 17 18 18 18 18 17 18 18 17 16 16 16 17 18 20 20 19 20 21 22 23 23 23 24 26 28 28 28 28 27 26 26 25 24 21 19 19 19 19 19 18 18 17 17 17 18 18 17 17 18 18 19 19 19 21 23 23 24 25 24 22 21 21 20 20 19 19 20 20 20 19 18 18 18 17 16 16 15 15
10 11 12 13 14 15 15 16 17 16 15 16 17 18 18 16 15 15 16 17 18 18 17 17 17 18 20 21 21 21 22 24 25 26 27 26 26 25 25 24 22 19 17 17 16 15 14 13 14 14 15 15 14 13 13 13 13 14 15 17 19 21 21 22 22 20 19 19 18 17 17 17 17 18 18 19 19 19 20 20 19 19 18 17 17
9 10 11 11 12 13 13 14 15 13 12 14 15 17 18 17 15 15 16 17 18 17 16 16 16 15 15 16 19 19 19 19 20 22 22 22 21 20 20 19 18 17 15 14 14 13 12 11 11 12 12 11 11 11 10 10 12 14 15 17 18 18 18 18 17 15 13 14 15 15 16 16 17 18 19 20 21 21 22 22 21 20 20 19 20
9 10 11 11 11 10 10 12 14 12 11 11 13 14 16 17 17 16 16 16 17 17 15 14 15 14 13 12 13 15 16 16 16 16 18 19 19 18 17 16 16 15 14 14 13 12 10 9 10 10 10 9 9 10 9 9 13 15 16 16 16 15 14 14 10 7 10 13 15 16 18 18 19 21 22 22 22 22 23 23 23 22 22 21 21
Wind_Direction
146 158 171 180 186 191 196 192 183 185 189 194 205 211 215 218 221 224 224 221 218 217 216 213 213 212 212 212 208 201 199 205 214 219 221 223 223 221 219 218 220 224 227 225 223 221 216 216 218 213 209 208 207 208 206 204 202 197 196 194 190 181 173 177 180 170 150 140 148 146 156 181 194 202 205 208 209 207 218 214 198 199 202 198 197
145 151 166 174 181 186 190 185 179 182 189 200 210 212 216 220 224 227 226 223 221 220 217 213 214 213 214 218 216 204 199 205 213 218 222 225 224 222 221 219 216 220 224 224 223 222 219 218 218 212 209 208 209 208 204 201 198 198 195 190 191 184 174 176 176 166 149 146 146 132 135 151 162 186 205 215 214 209 226 231 207 204 201 197 201
148 156 168 174 181 185 187 186 184 187 195 207 213 213 216 221 225 228 228 226 224 222 219 217 217 217 218 225 229 217 208 212 216 218 221 224 224 222 223 221 217 218 221 223 223 222 221 220 218 215 211 209 208 205 201 202 201 200 199 194 187 173 170 179 178 172 159 148 141 134 150 144 135 168 199 212 216 211 226 238 214 205 196 194 200
152 165 184 184 185 188 192 191 188 192 201 209 211 212 218 222 225 229 231 231 229 225 223 222 221 222 221 228 239 231 219 218 220 222 222 223 223 222 224 223 219 218 220 223 223 222 221 220 220 218 214 211 210 208 206 209 208 200 199 199 191 171 161 175 183 184 173 158 143 115 131 134 158 179 164 166 204 206 225 235 213 201 192 192 199
152 165 190 198 196 196 201 202 201 205 214 218 217 218 222 227 232 237 240 242 240 234 230 228 226 226 226 230 237 231 220 213 212 217 219 221 223 224 226 226 221 221 222 224 224 224 223 221 221 220 217 214 215 217 216 217 214 205 201 202 200 190 175 175 185 195 192 179 164 140 133 173 210 169 149 135 182 190 218 234 211 208 206 196 198
149 173 192 206 217 219 224 243 255 313 338 339 323 296 284 278 270 264 266 267 265 254 245 243 242 237 231 228 226 220 212 207 207 211 213 216 222 226 229 227 223 223 224 225 226 227 225 223 221 220 219 218 219 223 222 218 214 209 207 207 206 205 191 180 187 199 201 194 184 174 167 179 167 155 155 158 166 182 206 213 203 211 211 198 199
50 34 342 324 356 4 17 28 33 25 13 12 11 5 1 357 342 312 296 289 282 279 276 273 269 262 245 229 221 215 214 222 224 221 216 215 220 226 229 226 222 222 223 225 227 227 227 225 222 221 220 221 222 223 222 218 214 212 212 211 210 207 195 185 188 193 197 201 199 184 158 145 163 160 163 155 149 174 184 187 194 201 201 197 206
42 38 32 28 30 36 40 42 41 34 19 2 346 346 352 356 347 314 291 280 273 276 287 289 277 271 264 244 232 227 230 247 254 237 222 218 221 223 225 225 221 220 221 223 225 225 226 225 223 222 221 222 223 223 221 219 217 216 215 213 211 208 202 195 192 190 194 200 198 187 164 159 174 176 176 161 141 161 167 177 189 193 202 206 210
48 46 44 42 43 45 44 39 29 17 9 356 333 313 312 329 336 309 284 271 263 256 263 285 278 265 268 265 257 254 253 258 263 245 229 223 222 222 223 224 220 219 221 223 223 223 224 225 224 223 223 222 222 222 221 221 219 218 217 214 212 211 209 205 199 196 198 200 196 194 182 166 172 177 177 162 138 155 169 180 178 177 200 212 212
42 41 40 40 41 39 33 27 19 10 2 359 2 10 110 128 22 346 313 282 271 263 260 274 279 262 257 261 260 259 258 256 254 239 229 226 223 221 222 222 219 218 222 225 226 225 225 226 226 224 224 224 223 222 221 221 220 220 220 217 214 215 213 209 207 206 206 204 199 196 181 164 162 158 171 168 147 151 173 184 179 176 186 195 205
28 30 29 28 30 29 26 24 21 19 17 10 8 11 24 56 360 346 339 310 292 286 277 275 276 261 251 256 255 252 253 248 241 231 225 223 223 223 222 221 220 220 223 227 228 229 228 227 227 226 225 224 224 223 222 222 221 220 220 219 217 218 217 212 211 213 213 209 205 203 196 186 183 179 181 178 169 161 162 175 182 183 183 181 193
26 28 25 24 25 24 23 23 19 20 21 17 12 8 10 16 342 310 317 317 311 307 296 287 280 264 256 258 255 251 250 245 237 233 233 231 230 228 223 222 224 223 225 228 226 225 226 227 227 227 226 226 225 224 223 224 223 220 219 221 221 220 220 217 214 215 216 213 209 210 210 209 208 205 196 191 190 184 171 167 176 178 180 186 190
27 27 25 26 26 21 21 22 19 18 18 18 19 13 10 15 9 326 296 301 307 304 298 298 290 271 260 259 261 258 251 246 242 240 242 242 241 238 231 232 232 226 223 226 226 223 222 225 228 229 227 226 226 224 225 226 224 221 220 221 220 219 221 220 218 219 221 221 218 214 214 217 218 223 218 205 199 191 174 160 166 172 172 173 185
24 22 24 24 21 20 20 19 18 16 13 16 20 16 11 13 14 6 349 330 319 304 292 290 292 284 272 266 268 266 258 255 253 250 247 245 245 247 245 243 243 238 229 225 226 223 221 221 225 231 231 229 230 227 226 228 227 223 223 222 218 219 222 221 220 222 224 225 224 220 219 222 222 228 230 214 201 195 182 163 155 161 168 160 171
21 20 22 20 16 17 17 16 16 12 12 15 17 15 12 11 12 12 8 1 355 342 306 290 289 285 279 273 267 264 260 255 253 251 248 244 241 239 237 236 244 251 246 235 230 226 223 221 222 228 233 235 236 233 228 229 229 226 226 226 222 219 220 221 220 221 224 225 226 225 226 226 223 227 231 224 212 208 200 181 165 151 153 162 163
15 14 15 14 14 16 15 14 12 10 11 13 13 12 10 8 9 12 14 10 3 352 316 289 285 278 275 272 265 264 263 255 250 250 250 250 245 236 233 234 245 259 257 249 242 233 228 227 227 226 229 234 237 234 230 229 228 227 226 226 223 218 218 220 219 220 224 227 229 229 229 226 225 227 230 229 220 216 213 199 182 168 158 155 171
9 9 10 9 10 12 11 10 9 8 8 8 7 8 10 11 9 8 10 9 358 345 325 302 287 278 277 273 264 259 259 256 252 251 253 255 253 247 244 239 240 255 259 255 249 239 232 234 233 227 226 231 234 231 228 227 228 230 228 224 220 219 219 219 219 221 224 228 230 230 229 227 226 228 230 229 221 217 216 211 204 193 180 164 165
6 7 10 10 10 9 8 5 5 6 7 5 3 4 9 12 10 7 6 3 354 347 342 332 301 279 272 271 271 266 258 255 255 255 253 250 248 251 255 247 240 247 252 252 247 239 232 232 232 229 225 227 232 233 230 227 228 232 231 226 220 218 219 219 219 222 223 224 226 227 227 226 226 227 229 227 220 220 220 217 218 212 199 186 177
6 7 8 6 7 6 5 3 1 2 4 3 3 6 10 11 10 8 5 1 355 350 349 349 336 302 275 265 269 268 259 256 258 257 251 244 243 246 254 257 251 246 244 244 244 238 229 229 231 230 227 224 228 233 230 224 225 228 229 228 223 217 218 218 218 219 220 218 220 221 221 222 223 224 225 225 221 222 225 221 220 217 211 207 197
7 6 4 1 3 3 4 3 359 357 358 359 2 6 8 8 8 7 2 358 354 351 351 350 344 328 301 273 263 260 257 258 259 258 254 250 245 241 246 255 252 247 245 243 244 239 231 231 233 233 231 229 229 230 226 221 221 223 226 228 224 218 218 217 216 217 217 216 217 219 219 218 218 218 218 220 221 223 226 223 222 220 216 216 211
8 6 4 1 2 2 3 4 2 359 357 359 2 3 2 3 4 3 359 354 350 348 348 346 341 333 317 294 271 258 255 258 260 259 255 255 253 248 249 253 251 249 249 245 243 240 234 232 232 233 235 234 232 230 225 221 218 217 224 226 221 214 215 214 214 216 214 215 218 217 218 218 217 217 216 216 219 222 222 220 220 221 219 218 215
11 9 7 6 5 2 1 3 4 4 2 0 1 0 358 358 359 359 357 355 351 346 342 341 338 333 324 310 284 260 254 258 260 257 253 255 258 257 255 255 253 251 249 244 241 236 231 227 226 230 232 230 230 230 226 220 216 215 222 225 217 209 211 211 211 215 214 214 216 215 217 218 216 216 214 214 218 218 216 215 216 220 222 220 217
13 12 12 12 8 2 1 3 5 5 2 360 0 358 356 358 359 357 355 355 353 348 341 337 335 332 330 327 305 273 258 256 255 253 254 254 250 251 256 257 255 252 247 242 236 230 225 222 221 225 226 222 223 227 223 216 213 213 218 221 215 207 210 211 210 214 215 213 213 213 215 216 215 215 214 215 220 219 216 214 213 218 222 220 218
15 15 13 12 10 6 4 4 3 2 359 356 355 352 352 356 356 353 351 351 351 349 344 338 334 331 329 329 324 305 277 259 252 253 259 256 247 247 256 259 255 251 245 238 231 224 222 220 218 219 219 215 214 218 219 214 210 212 217 217 211 206 209 210 210 213 214 213 211 210 212 215 215 215 216 217 219 220 217 212 211 217 220 219 219
14 13 11 10 10 8 6 6 4 360 356 352 351 350 349 350 350 347 348 349 349 349 347 343 340 336 330 326 323 317 303 283 266 259 260 259 254 252 254 253 249 246 243 236 226 220 218 218 216 215 214 210 206 210 217 215 210 213 217 214 207 204 207 209 211 214 216 214 212 212 213 215 216 215 216 219 219 218 217 211 211 216 218 218 219
13 10 6 6 7 5 4 4 3 358 353 350 351 352 351 351 351 350 349 350 349 349 352 351 347 341 332 326 322 316 311 304 293 279 265 259 256 251 246 244 243 241 239 233 223 216 215 215 214 212 211 207 204 210 216 215 213 215 214 208 205 205 207 208 211 215 217 215 213 215 218 219 220 220 220 221 219 217 216 212 213 217 218 218 216
16 11 6 4 3 360 358 357 356 355 353 352 354 354 354 353 353 354 355 354 350 350 354 355 350 345 336 327 323 320 315 309 304 295 278 260 250 243 238 239 240 238 235 229 219 213 214 214 211 208 206 203 204 211 215 213 214 216 211 205 204 206 206 207 209 212 213 214 215 217 222 226 227 227 226 225 222 220 219 216 215 217 217 217 215
13 10 7 3 358 355 355 354 353 354 354 356 357 356 356 356 355 356 358 357 354 352 353 354 352 349 342 332 323 318 314 308 302 297 287 269 253 243 236 235 235 233 230 223 214 210 210 209 207 204 201 201 204 210 214 212 212 214 211 206 205 206 206 205 208 212 213 216 219 222 227 230 231 232 233 231 226 224 223 218 216 216 216 216 214
6 5 4 0 356 354 354 355 357 359 359 358 357 355 357 357 357 358 358 358 357 355 353 354 354 353 348 340 328 316 310 305 298 292 287 275 261 251 242 234 231 228 223 215 208 206 204 202 201 200 199 200 201 205 210 212 210 210 211 207 203 204 205 205 208 213 215 216 219 224 230 233 234 235 235 235 233 231 227 224 220 215 214 215 214
1 360 358 358 356 355 356 359 0 1 360 357 356 355 356 357 358 359 360 0 360 357 356 356 355 353 352 348 337 322 309 301 292 286 282 275 266 258 247 235 228 223 215 206 202 201 200 197 195 194 195 197 198 201 207 209 207 207 208 204 201 202 201 201 206 209 210 212 216 222 228 231 231 230 227 229 228 221 216 223 229 224 219 218 214
359 356 354 355 356 358 1 2 0 359 359 358 356 356 358 359 0 1 1 2 3 1 0 358 355 354 354 353 346 331 314 299 290 283 276 270 264 256 243 227 220 217 208 199 196 195 193 193 191 189 190 192 194 199 203 204 204 205 203 201 201 200 198 200 205 208 205 203 205 209 215 220 220 213 209 210 205 195 197 211 223 226 224 224 222
358 356 354 355 356 359 0 360 358 358 359 360 360 360 0 1 1 3 4 5 6 6 5 2 359 357 357 356 350 339 325 303 286 277 270 264 257 246 231 214 208 207 201 194 191 188 186 188 188 186 185 187 191 195 197 198 199 199 199 200 197 193 193 198 203 203 197 191 190 193 197 202 202 198 200 203 196 188 193 205 213 218 220 226 226
0 358 357 356 354 357 358 359 359 359 359 2 4 4 3 2 3 5 8 8 8 8 8 5 2 1 1 359 357 353 345 322 282 267 263 257 246 231 215 202 198 196 191 187 185 181 180 182 183 182 180 181 187 190 190 193 193 190 191 193 191 188 189 192 193 190 184 181 182 185 185 184 189 198 203 203 195 186 188 199 207 211 214 218 219
359 359 359 356 356 358 360 1 2 2 3 8 12 11 9 9 9 11 12 12 11 10 10 6 3 5 6 4 4 7 6 359 320 257 247 239 222 205 190 184 184 181 178 177 175 173 174 176 177 176 174 175 181 183 183 184 182 179 182 186 187 186 184 182 180 179 177 177 177 176 172 170 174 183 190 190 185 180 177 177 171 162 157 155 172
358 358 358 359 359 360 2 5 6 8 11 13 16 17 17 15 16 16 15 13 13 13 11 7 5 8 10 9 10 15 19 23 31 52 106 124 147 160 156 156 159 160 161 162 161 162 166 168 169 170 170 171 174 176 176 176 174 172 176 180 180 176 172 170 168 169 172 170 168 166 163 160 156 155 164 170 170 164 155 146 137 129 125 121 118
0 357 357 1 3 4 8 11 13 16 17 17 18 21 21 20 20 20 17 15 15 14 12 10 9 10 13 13 13 20 29 35 43 55 65 72 86 103 124 139 142 141 143 146 147 150 155 155 157 162 164 163 164 168 170 172 173 172 173 172 170 165 161 159 158 160 163 163 163 164 163 158 150 145 148 154 155 152 145 138 130 123 117 114 108
7 5 7 12 13 15 18 19 20 22 21 19 22 26 27 26 23 21 18 17 16 14 12 11 11 13 16 18 17 22 33 42 46 55 60 64 73 83 102 119 123 122 124 126 129 135 137 136 142 152 156 153 152 157 163 167 170 173 172 169 164 160 155 152 151 152 155 155 156 160 163 162 155 148 148 151 153 151 144 137 131 125 120 114 109
12 11 15 19 20 22 22 21 23 25 23 22 25 30 32 30 25 22 20 18 15 12 11 11 14 17 21 24 25 26 34 44 48 53 61 69 76 79 90 104 108 107 107 108 111 117 119 119 126 135 142 142 142 147 154 159 164 171 174 169 164 158 151 148 146 145 146 146 144 146 156 162 159 153 151 154 157 158 152 145 141 136 130 123 119
21 20 20 20 22 24 24 23 23 21 21 24 28 32 34 32 28 26 24 19 14 11 11 12 16 23 26 29 32 33 36 44 49 51 58 69 79 79 80 91 99 99 98 100 101 101 101 103 108 115 124 129 132 138 147 154 158 166 172 170 166 158 148 144 143 141 138 136 135 135 141 150 153 151 151 154 161 169 167 161 158 149 136 128 127
23 25 27 27 27 26 23 22 19 17 20 25 29 32 33 31 30 29 25 20 15 15 17 18 20 28 32 33 36 38 40 44 49 52 55 61 74 82 81 83 89 92 93 95 93 89 88 89 94 102 108 114 121 129 140 150 156 161 166 167 167 161 151 144 141 139 136 132 131 132 132 136 142 146 149 153 157 162 158 153 155 150 137 132 134
26 27 28 30 30 28 25 22 20 20 22 25 27 29 28 29 30 28 23 22 23 25 28 28 26 29 34 37 39 42 45 48 52 57 59 58 63 72 80 84 84 86 88 87 84 83 81 77 81 92 97 102 112 122 132 143 152 157 160 163 163 159 153 147 140 136 134 131 129 128 127 130 136 139 143 145 145 146 146 145 146 140 133 134 137
30 30 28 26 25 24 23 21 22 23 23 25 27 26 25 26 26 24 24 28 32 34 36 37 34 32 33 37 41 44 48 52 55 60 66 67 65 65 69 76 79 81 86 84 79 78 77 70 70 78 85 91 101 113 123 133 143 150 154 157 154 150 149 147 140 133 129 126 124 123 122 126 132 132 131 131 131 133 135 134 132 130 130 134 136
28 27 26 24 22 20 19 20 22 24 24 26 28 26 24 23 21 22 28 34 36 38 40 41 40 37 34 36 40 45 51 57 59 61 65 71 74 70 67 68 71 73 76 78 76 75 74 67 62 66 73 78 86 96 108 118 127 136 142 146 145 142 143 144 138 130 126 123 121 119 120 123 126 125 122 122 121 121 121 120 121 123 127 131 131
26 25 23 21 17 15 18 21 23 24 25 27 27 26 25 23 19 20 28 35 37 40 42 43 43 41 38 37 40 46 53 59 64 66 64 64 70 75 72 70 71 72 70 69 70 72 72 65 56 57 63 70 75 81 89 97 107 118 126 132 134 135 136 136 128 122 121 120 118 117 118 120 119 117 116 115 113 112 112 114 118 121 124 125 124
21 22 17 15 14 13 16 20 21 22 23 25 26 26 25 22 19 20 27 35 39 41 42 43 44 45 44 43 43 47 53 60 66 68 66 62 64 71 72 68 69 71 70 67 65 67 68 64 57 53 56 63 70 74 78 84 91 99 108 116 122 126 129 127 121 116 115 115 115 116 117 116 115 114 114 111 109 109 112 115 118 120 120 118 114
16 14 10 9 13 14 13 14 15 17 19 21 24 26 25 23 22 23 28 36 41 44 45 43 43 46 48 49 48 48 51 57 64 69 70 67 65 67 67 65 64 65 66 65 63 62 62 61 58 54 55 62 70 74 77 80 83 90 98 105 112 117 120 119 116 114 113 113 114 116 116 114 113 112 111 110 109 111 114 115 115 114 112 106 102
7 6 5 7 10 11 10 10 12 15 18 20 22 24 25 26 27 27 30 36 41 45 47 45 43 44 47 51 53 52 51 54 58 63 66 65 64 65 65 64 63 64 64 63 61 59 56 54 52 51 52 58 67 76 83 89 94 99 104 109 114 116 117 116 115 114 116 116 115 115 113 112 112 111 110 110 111 111 111 108 105 102 99 94 90
1 2 4 4 5 6 6 7 10 15 21 21 20 21 22 27 30 27 26 31 36 40 46 47 45 44 44 48 53 56 57 57 57 59 60 60 60 63 66 65 65 66 68 68 67 64 59 54 52 49 47 52 61 70 81 91 99 105 108 112 116 116 116 116 117 117 118 117 115 114 113 113 112 111 109 108 107 105 102 99 97 95 93 92 91
1 360 359 359 359 1 4 7 9 15 22 23 22 22 23 25 27 25 22 24 26 29 37 43 46 47 47 48 51 55 60 64 64 63 63 62 61 62 65 66 65 65 67 70 72 74 70 65 63 58 52 53 58 65 79 89 96 104 112 114 114 114 115 116 118 119 119 117 116 114 112 111 109 107 105 102 101 100 99 98 97 96 96 95 93
3 357 353 353 356 358 2 8 11 14 19 22 24 25 24 24 25 23 20 17 16 18 25 33 39 45 47 49 52 54 58 65 70 71 70 70 69 68 69 69 67 67 69 71 71 74 74 74 76 74 67 61 57 62 83 106 117 120 120 117 114 114 116 116 117 119 117 112 110 105 102 103 104 104 103 102 102 102 101 98 96 95 94 92 90
2 355 351 351 357 1 4 9 13 15 17 20 22 23 23 24 23 19 16 14 14 17 20 21 28 38 43 48 55 58 58 61 67 73 77 78 79 78 76 76 75 74 75 74 73 73 74 78 84 86 83 75 65 60 74 110 129 127 121 117 116 117 116 115 116 116 107 102 102 101 101 102 103 103 103 103 103 102 100 98 97 94 92 91 91